Location: Artiguedieu
(43.5000°N, 0.5454°E)
Time: 21:22:13
(UTC+00:00)

Vanguard 1 - Pass Details

Date: 04 August 2021
Orbit: 652 x 3831 km, 34.3° (Epoch: 19 September)

Event Time Altitude Azimuth Distance (km) Brightness Sun altitude
Rises 16:31:15 0° 259° (W) 4,517 14.7 28.3°
Reaches altitude 10° 16:36:07 10° 235° (SW) 4,120 14.3 27.5°
Maximum altitude 16:41:03 14° 209° (SSW) 4,375 13.9 26.6°
Drops below altitude 10° 16:47:12 10° 184° (S) 5,330 13.9 25.4°
Sets 16:55:51 0° 164° (SSE) 7,094 14.3 23.9°
